| time (UTC) | temp F | wind direction | speed MPH | gust MPH | rain 1hr in | rain 24hr in | rain mn in | humidity % | barometer mb |
| 20260510123057 | 47 | 0 | 0.0 | 1.0 | 0.00 | 0.00 | 0.00 | 68 | 1021.8 |
| 20260510121602 | 46 | 0 | 0.0 | 0.0 | 0.00 | 0.00 | 0.00 | 66 | 1021.7 |
| 20260510120057 | 46 | 0 | 0.0 | 0.0 | 0.00 | 0.00 | 0.00 | 62 | 1021.7 |
| 20260510114609 | 45 | 0 | 0.0 | 1.0 | 0.00 | 0.00 | 0.00 | 61 | 1021.5 |
| 20260510113059 | 45 | 0 | 0.0 | 0.0 | 0.00 | 0.00 | 0.00 | 58 | 1021.5 |
| 20260510111559 | 45 | 0 | 0.0 | 0.0 | 0.00 | 0.00 | 0.00 | 56 | 1021.2 |
| 20260510110119 | 45 | 0 | 0.0 | 1.0 | 0.00 | 0.00 | 0.00 | 56 | 1021.3 |
| 20260510104615 | 45 | 0 | 0.0 | 0.0 | 0.00 | 0.00 | 0.00 | 55 | 1021.0 |
| 20260510103056 | 45 | 0 | 0.0 | 0.0 | 0.00 | 0.00 | 0.00 | 55 | 1021.1 |
| 20260510101602 | 45 | 0 | 0.0 | 0.0 | 0.00 | 0.00 | 0.00 | 55 | 1020.8 |
| 20260510094605 | 46 | 0 | 0.0 | 0.0 | 0.00 | 0.00 | 0.00 | 55 | 1020.5 |
| 20260510093057 | 46 | 0 | 0.0 | 0.0 | 0.00 | 0.00 | 0.00 | 55 | 1020.4 |
| 20260510091558 | 46 | 0 | 0.0 | 0.0 | 0.00 | 0.00 | 0.00 | 53 | 1020.3 |
| 20260510090111 | 47 | 0 | 0.0 | 0.0 | 0.00 | 0.00 | 0.00 | 52 | 1020.0 |
| 20260510084556 | 47 | 0 | 0.0 | 0.0 | 0.00 | 0.00 | 0.00 | 52 | 1020.0 |
| 20260510083057 | 47 | 0 | 0.0 | 0.0 | 0.00 | 0.00 | 0.00 | 52 | 1019.8 |
| 20260510081557 | 48 | 0 | 0.0 | 0.0 | 0.00 | 0.00 | 0.00 | 51 | 1019.7 |
| 20260510080100 | 48 | 0 | 0.0 | 0.0 | 0.00 | 0.00 | 0.00 | 52 | 1019.6 |
| 20260510074623 | 48 | 0 | 0.0 | 0.0 | 0.00 | 0.00 | 0.00 | 52 | 1019.6 |
| 20260510073055 | 48 | 354 | 0.0 | 2.0 | 0.00 | 0.00 | 0.00 | 52 | 1019.2 |
| 20260510071602 | 48 | 0 | 0.0 | 0.0 | 0.00 | 0.00 | 0.00 | 51 | 1019.1 |
| 20260510070107 | 49 | 356 | 0.0 | 3.0 | 0.00 | 0.00 | 0.00 | 51 | 1019.1 |
| 20260510064600 | 49 | 350 | 0.0 | 6.0 | 0.00 | 0.00 | 0.00 | 50 | 1019.2 |
| 20260510063102 | 50 | 349 | 1.0 | 7.0 | 0.00 | 0.00 | 0.00 | 48 | 1019.0 |
| 20260510061555 | 50 | 356 | 1.0 | 7.0 | 0.00 | 0.00 | 0.00 | 48 | 1019.2 |
| 20260510054602 | 51 | 0 | 0.0 | 7.0 | 0.00 | 0.00 | 0.00 | 49 | 1018.2 |
| 20260510053055 | 51 | 0 | 0.0 | 3.0 | 0.00 | 0.00 | 0.00 | 49 | 1017.8 |
| 20260510051558 | 53 | 0 | 0.0 | 1.0 | 0.00 | 0.00 | 0.00 | 47 | 1017.7 |
| 20260510050059 | 53 | 0 | 0.0 | 2.0 | 0.00 | 0.00 | 0.00 | 47 | 1017.4 |
| 20260510044612 | 54 | 358 | 0.0 | 3.0 | 0.00 | 0.00 | 0.00 | 47 | 1017.3 |
| 20260510043106 | 55 | 350 | 0.0 | 2.0 | 0.00 | 0.00 | 0.00 | 46 | 1017.1 |
| 20260510041607 | 55 | 0 | 0.0 | 4.0 | 0.00 | 0.00 | 0.00 | 45 | 1016.8 |
| 20260510040058 | 56 | 0 | 0.0 | 0.0 | 0.00 | 0.00 | 0.00 | 44 | 1016.5 |
| 20260510034600 | 56 | 351 | 0.0 | 4.0 | 0.00 | 0.00 | 0.00 | 43 | 1016.2 |
| 20260510033121 | 57 | 0 | 1.0 | 3.0 | 0.00 | 0.00 | 0.00 | 44 | 1016.2 |
| 20260510031629 | 58 | 356 | 2.0 | 7.0 | 0.00 | 0.00 | 0.00 | 42 | 1016.0 |
| 20260510024559 | 59 | 1 | 1.0 | 6.0 | 0.00 | 0.00 | 0.00 | 41 | 1015.2 |
| 20260510023057 | 60 | 353 | 1.0 | 4.0 | 0.00 | 0.00 | 0.00 | 40 | 1014.7 |
| 20260510021557 | 62 | 343 | 0.0 | 2.0 | 0.00 | 0.00 | 0.00 | 38 | 1014.4 |
| 20260510020058 | 62 | 0 | 1.0 | 6.0 | 0.00 | 0.00 | 0.00 | 37 | 1014.0 |
| 20260510014608 | 63 | 353 | 1.0 | 6.0 | 0.00 | 0.00 | 0.00 | 37 | 1013.8 |
| 20260510013056 | 64 | 0 | 0.0 | 4.0 | 0.00 | 0.00 | 0.00 | 38 | 1013.3 |
| 20260510011559 | 65 | 3 | 1.0 | 10.0 | 0.00 | 0.00 | 0.00 | 37 | 1013.0 |
| 20260510004600 | 67 | 28 | 2.0 | 7.0 | 0.00 | 0.00 | 0.00 | 39 | 1012.4 |
| 20260510003104 | 67 | 0 | 0.0 | 11.0 | 0.00 | 0.00 | 0.00 | 41 | 1012.1 |
| 20260510001556 | 68 | 0 | 1.0 | 7.0 | 0.00 | 0.00 | 0.00 | 42 | 1012.1 |
| 20260510000058 | 68 | 337 | 2.0 | 12.0 | 0.00 | 0.00 | 0.00 | 41 | 1012.2 |
| 20260509234608 | 68 | 351 | 0.0 | 9.0 | 0.00 | 0.00 | 0.00 | 41 | 1012.0 |
| 20260509233053 | 68 | 348 | 1.0 | 11.0 | 0.00 | 0.00 | 0.00 | 42 | 1012.1 |
| 20260509231556 | 68 | 0 | 4.0 | 12.0 | 0.00 | 0.00 | 0.00 | 43 | 1011.9 |
| 20260509224553 | 68 | 328 | 0.0 | 12.0 | 0.00 | 0.00 | 0.00 | 44 | 1011.9 |
| 20260509223100 | 69 | 336 | 2.0 | 12.0 | 0.00 | 0.00 | 0.00 | 44 | 1011.9 |
| 20260509221555 | 70 | 0 | 2.0 | 12.0 | 0.00 | 0.00 | 0.00 | 43 | 1011.7 |
| 20260509220104 | 69 | 345 | 0.0 | 11.0 | 0.00 | 0.00 | 0.00 | 45 | 1011.7 |
| 20260509214558 | 69 | 335 | 2.0 | 9.0 | 0.00 | 0.00 | 0.00 | 44 | 1011.5 |
| 20260509213104 | 69 | 4 | 3.0 | 15.0 | 0.00 | 0.00 | 0.00 | 43 | 1011.5 |
| 20260509211604 | 69 | 342 | 2.0 | 10.0 | 0.00 | 0.00 | 0.00 | 41 | 1011.4 |
| 20260509210101 | 69 | 339 | 3.0 | 18.0 | 0.00 | 0.00 | 0.00 | 41 | 1011.3 |
| 20260509204600 | 70 | 5 | 7.0 | 19.0 | 0.00 | 0.00 | 0.00 | 38 | 1011.2 |
| 20260509203058 | 70 | 5 | 7.0 | 21.0 | 0.00 | 0.00 | 0.00 | 38 | 1010.9 |
| 20260509201553 | 71 | 344 | 7.0 | 19.0 | 0.00 | 0.00 | 0.00 | 37 | 1010.6 |
| 20260509200057 | 74 | 342 | 4.0 | 15.0 | 0.00 | 0.00 | 0.00 | 35 | 1010.2 |
| 20260509194557 | 74 | 47 | 3.0 | 10.0 | 0.00 | 0.00 | 0.00 | 36 | 1009.8 |
| 20260509193057 | 75 | 5 | 4.0 | 13.0 | 0.00 | 0.00 | 0.00 | 32 | 1009.6 |
| 20260509191622 | 75 | 360 | 6.0 | 15.0 | 0.00 | 0.00 | 0.00 | 29 | 1009.5 |
| 20260509190100 | 76 | 357 | 2.0 | 8.0 | 0.00 | 0.00 | 0.00 | 27 | 1009.4 |
| 20260509184558 | 75 | 333 | 0.0 | 7.0 | 0.00 | 0.00 | 0.00 | 30 | 1009.4 |
| 20260509183057 | 75 | 342 | 2.0 | 16.0 | 0.00 | 0.00 | 0.00 | 29 | 1009.5 |
| 20260509181604 | 75 | 47 | 3.0 | 16.0 | 0.00 | 0.00 | 0.00 | 30 | 1009.4 |
| 20260509180101 | 76 | 338 | 1.0 | 10.0 | 0.00 | 0.00 | 0.00 | 27 | 1009.2 |
| 20260509174604 | 74 | 9 | 3.0 | 13.0 | 0.00 | 0.00 | 0.00 | 29 | 1009.1 |
| 20260509173112 | 74 | 350 | 1.0 | 8.0 | 0.00 | 0.00 | 0.00 | 29 | 1009.2 |
| 20260509171601 | 74 | 334 | 3.0 | 11.0 | 0.00 | 0.00 | 0.00 | 29 | 1009.4 |
| 20260509170057 | 74 | 3 | 1.0 | 12.0 | 0.00 | 0.00 | 0.00 | 28 | 1009.5 |
| 20260509164554 | 72 | 9 | 1.0 | 7.0 | 0.00 | 0.00 | 0.00 | 30 | 1009.3 |
| 20260509163104 | 72 | 343 | 2.0 | 9.0 | 0.00 | 0.00 | 0.00 | 30 | 1009.2 |
| 20260509161559 | 70 | 352 | 3.0 | 12.0 | 0.00 | 0.00 | 0.00 | 29 | 1009.3 |
| 20260509160101 | 70 | 333 | 3.0 | 11.0 | 0.00 | 0.00 | 0.00 | 31 | 1009.4 |
| 20260509154609 | 70 | 24 | 2.0 | 10.0 | 0.00 | 0.00 | 0.00 | 36 | 1009.6 |
| 20260509153058 | 69 | 338 | 2.0 | 15.0 | 0.00 | 0.00 | 0.00 | 34 | 1009.8 |
| 20260509151555 | 68 | 3 | 3.0 | 18.0 | 0.00 | 0.00 | 0.00 | 36 | 1009.8 |
| 20260509150058 | 67 | 0 | 3.0 | 14.0 | 0.00 | 0.00 | 0.00 | 38 | 1009.5 |
| 20260509144610 | 64 | 331 | 0.0 | 18.0 | 0.00 | 0.00 | 0.00 | 41 | 1009.6 |
| 20260509143058 | 64 | 217 | 0.0 | 10.0 | 0.00 | 0.00 | 0.00 | 41 | 1008.3 |
| 20260509141556 | 63 | 203 | 2.0 | 8.0 | 0.00 | 0.00 | 0.00 | 42 | 1008.5 |
| 20260509140107 | 62 | 0 | 1.0 | 7.0 | 0.00 | 0.00 | 0.00 | 43 | 1008.5 |
| 20260509134557 | 60 | 0 | 1.0 | 8.0 | 0.00 | 0.00 | 0.00 | 45 | 1008.5 |
| 20260509133103 | 59 | 0 | 1.0 | 6.0 | 0.00 | 0.00 | 0.00 | 46 | 1008.3 |
| 20260509131559 | 57 | 219 | 0.0 | 7.0 | 0.00 | 0.00 | 0.00 | 51 | 1008.4 |
| 20260509130105 | 55 | 217 | 1.0 | 3.0 | 0.00 | 0.00 | 0.00 | 54 | 1008.2 |
| 20260509124609 | 54 | 0 | 0.0 | 3.0 | 0.00 | 0.00 | 0.00 | 55 | 1008.2 |